Tracking 19562 objects as of 23-Mar-2019
HD Live streaming from Space Station
objects crossing your sky now

COSMOS 1801

Track COSMOS 1801 now!
10-day predictions
COSMOS 1801 is classified as:


NORAD ID: 17145
Int'l Code: 1986-092H
Perigee: 1,392.8 km
Apogee: 1,477.2 km
Inclination: 74.0 °
Period: 114.4 minutes
Semi major axis: 7806 km
RCS: 0.7115 m2 (medium)
Launch date: November 21, 1986
Source: Commonwealth of Independent States (former USSR) (CIS)
Launch site: PLESETSK MISSILE AND SPACE COMPLEX (PKMTR)
aabbcc
Your satellite tracking list
Your tracking list is empty




NASA's NSSDC Master Catalog

Two Line Element Set (TLE):
1 17145U 86092H   19082.84769323 -.00000011  00000-0  31013-4 0  9990
2 17145  74.0141 329.8955 0054044  77.3821 352.8260 12.58805176486145
Source of the keplerian elements: AFSPC